User: anonymous   Login
Location: Unspecified
(0.0000°N, 0.0000°E)
Time: 12:51:51
(UTC+01:00)
Language:

Cosmos 2251 - Orbit

View from above orbital plane
View from above orbital plane
View from above satellite
View from above satellite

Ground track
Ground track

The orbit data is extracted from the following two-line orbital elements,

1 22675U 93036A   16346.14816432  .00000032  00000-0  21335-4 0  9995
2 22675  74.0378 199.2765 0024985   1.4923 358.6298 14.32489037227103
Epoch (UTC): 11 December 2016 03:33:21
Eccentricity: 0.0024985
inclination: 74.0378°
perigee height: 765 km
apogee height: 801 km
right ascension of ascending node: 199.2765°
argument of perigee: 1.4923°
revolutions per day: 14.32489037
mean anomaly at epoch: 358.6298°
orbit number at epoch: 22710

The dashed part of the orbit path shows where the satellite is in the earth's shadow,  

DLR